Regional Weather Roundup
Issued by NWS Bismarck, ND

Home | Current Version | Previous Version | Text Only | Print | Product List | Glossary On
Versions: 1 2 3 4 5 6 7 8 9 10 11 12 13 14 15 16 17 18 19 20 21 22 23 24 25 26 27 28 29 30 31 32 33 34 35 36 37 38 39 40 41 42 43 44 45 46 47 48 49 50
000
ASUS43 KBIS 292020
RWRBIS

NWR BROADCAST TEXT
NATIONAL WEATHER SERVICE BISMARCK ND
300 PM CDT TUE JUL 29 2014

NOTE: "FAIR" INDICATES FEW OR NO CLOUDS BELOW 12,000 FEET WITH NO
SIGNIFICANT WEATHER AND/OR OBSTRUCTIONS TO VISIBILITY.


CITY           SKY/WX    TMP DP  RH WIND       PRES   REMARKS
WILLISTON      MOSUNNY   84  51  31 N9        30.17F
MINOT          MOSUNNY   77  57  50 S6        30.17F
MINOT AFB      CLOUDY    77  59  54 SE3       30.16F
BISMARCK       CLOUDY    77  53  43 VRB5      30.18F
DICKINSON      MOSUNNY   81  52  36 S6        30.18F
GARRISON         N/A     78  57  48 CALM      30.18F
HETTINGER ARPT PTSUNNY   80  48  32 VRB3      30.21F
JAMESTOWN      MOSUNNY   76  51  41 VRB5      30.17F
CARRINGTON     MOCLDY    73  57  56 N6        30.19S
CROSBY         FAIR      77  59  53 N3        30.19F
HARVEY         FAIR      73  59  60 N6        30.18S
HAZEN            N/A     81  54  39 NE3       30.18F
LINTON         MOCLDY    79  55  44 NW9       30.18F
MANDAN         CLOUDY    75  54  46 CALM      30.20S
RUGBY          FAIR      70  61  73 NW6       30.18S
STANLEY        MOCLDY    75  57  53 W3        30.18F
TIOGA          FAIR      79  55  44 N5        30.21F
WATFORD CITY   FAIR      82  50  32 N7G16     30.15F
$$

CITY           SKY/WX    TMP DP  RH WIND       PRES   REMARKS
GRAND FORKS    MOSUNNY   75  56  51 N5        30.13F
GRAND FORKS AF SUNNY     78  56  46 NW7       30.15F
DEVILS LAKE    SUNNY     73  54  49 N9        30.16S
FARGO          MOSUNNY   79  49  34 N12G17    30.13F
CANDO          FAIR      73  52  46 N6        30.18F
CAVALIER       FAIR      75  52  43 N6        30.14F
GRAFTON        FAIR      77  50  38 NW12      30.14S
GWINNER        MOCLDY    75  52  43 N5        30.18F
LANGDON        FAIR      77  50  38 NW9       30.17F
ROLLA            N/A     72  54  53 N9        30.20S
WALHALLA       FAIR      75  54  46 NE7G22      N/A
$$

CITY           SKY/WX    TMP DP  RH WIND       PRES   REMARKS
ABERDEEN       MOSUNNY   75  52  44 NE6       30.17F
MOBRIDGE       MOSUNNY   78  53  41 N7        30.17F
BUFFALO          N/A     79  50  36 VRB3      30.16F
RAPID CITY     CLOUDY    69  59  70 SE8       30.26F
GLASGOW        SUNNY     90  43  19 NE13G18   30.17F
SIDNEY         SUNNY     84  54  34 NE10      30.18S
WOLF POINT     SUNNY     90  43  19 NE13G21   30.17F
GLENDIVE       SUNNY     86  43  22 N13G20    30.19S
MILES CITY     SUNNY     87  45  23 E5        30.18F
BAKER          PTSUNNY   84  47  27 CALM      30.22F
$$

CITY           SKY/WX    TMP DP  RH WIND       PRES   REMARKS
BILLINGS       MOSUNNY   87  50  27 SE8       30.18F
GREAT FALLS    SUNNY     90  43  19 NE8       30.18F
REGINA         MOSUNNY   79  59  50 N10       30.21S
ESTEVAN        MOSUNNY   77  59  53 NW5       30.19F
$$



USA.gov is the U.S. government's official web portal to all federal, state and local government web resources and services.